,,,PA_Meas_PMT16A,,PR_Meas_QMR101_102,,RH_Meas_QMH101,,SR_Meas_QMS101,,TA_Meas_QMH101,,GenWind,,GenWind,
date,time,status,PA,status,PR,status,RH,status,SR,status,TA,status,DirAvg,status,SpdAvg,
2012-12-05, 00:00:04,VALID,1009.6,VALID,0,VALID,104,VALID,0,VALID,23.3043,VALID,3,VALID,0.358203,
2012-12-05, 00:01:04,VALID,1009.61,VALID,0,VALID,104,VALID,0,VALID,23.2848,VALID,3,VALID,0.0332031,
2012-12-05, 00:02:04,VALID,1009.57,VALID,0,VALID,104,VALID,0,VALID,23.2848,VALID,3,VALID,0.335938,
2012-12-05, 00:03:04,VALID,1009.57,VALID,0,VALID,104,VALID,0,VALID,23.2848,VALID,3,VALID,0.542188,
2012-12-05, 00:04:04,VALID,1009.57,VALID,0,VALID,104,VALID,0,VALID,23.3043,VALID,3,VALID,0.194531,
2012-12-05, 00:05:04,VALID,1009.56,VALID,0,VALID,104,VALID,0,VALID,23.2848,VALID,3,VALID,0.159766,
2012-12-05, 00:06:04,VALID,1009.52,VALID,0,VALID,104,VALID,0,VALID,23.2848,VALID,3,VALID,0.330469,
2012-12-05, 00:07:04,VALID,1009.53,VALID,0,VALID,104,VALID,0,VALID,23.2654,VALID,3,VALID,0.303125,
2012-12-05, 00:08:04,VALID,1009.52,VALID,0,VALID,104,VALID,0,VALID,23.3061,VALID,3,VALID,0.166797,
2012-12-05, 00:09:04,VALID,1009.51,VALID,0,VALID,104,VALID,0,VALID,23.3061,VALID,3,VALID,0.0105469,
2012-12-05, 00:10:04,VALID,1009.52,VALID,0,VALID,104,VALID,0,VALID,23.3043,VALID,3,VALID,0.00234375,
2012-12-05, 00:11:04,VALID,1009.51,VALID,0,VALID,104,VALID,0,VALID,23.2831,VALID,3,VALID,0,
2012-12-05, 00:12:04,VALID,1009.5,VALID,0,VALID,104,VALID,0,VALID,23.3043,VALID,3,VALID,0,
2012-12-05, 00:13:04,VALID,1009.5,VALID,0,VALID,104,VALID,0,VALID,23.2654,VALID,3,VALID,0.000390625,
2012-12-05, 00:14:04,VALID,1009.49,VALID,0,VALID,104,VALID,0,VALID,23.2459,VALID,3,VALID,0,
2012-12-05, 00:15:04,VALID,1009.49,VALID,0,VALID,104,VALID,0,VALID,23.2848,VALID,3,VALID,0,
2012-12-05, 00:16:04,VALID,1009.45,VALID,0,VALID,104,VALID,0,VALID,23.2654,VALID,3,VALID,0,
2012-12-05, 00:17:04,VALID,1009.46,VALID,0,VALID,104,VALID,0,VALID,23.2654,VALID,3,VALID,0.329688,
2012-12-05, 00:18:04,VALID,1009.43,VALID,0,VALID,104,VALID,0,VALID,23.2459,VALID,3,VALID,0.0863281,
2012-12-05, 00:19:04,VALID,1009.42,VALID,0,VALID,104,VALID,0,VALID,23.2441,VALID,3,VALID,0.00234375,
2012-12-05, 00:20:04,VALID,1009.41,VALID,0,VALID,104,VALID,0,VALID,23.2866,VALID,3,VALID,0.478906,
2012-12-05, 00:21:04,VALID,1009.44,VALID,0,VALID,104,VALID,0,VALID,23.2459,VALID,3,VALID,0,
2012-12-05, 00:22:04,VALID,1009.38,VALID,0,VALID,104,VALID,0,VALID,23.2459,VALID,3,VALID,0.266406,
2012-12-05, 00:23:04,VALID,1009.37,VALID,0,VALID,104,VALID,0,VALID,23.2264,VALID,3,VALID,0.205859,
2012-12-05, 00:24:04,VALID,1009.35,VALID,0,VALID,104,VALID,0,VALID,23.2264,VALID,3,VALID,0,
2012-12-05, 00:25:04,VALID,1009.33,VALID,0,VALID,104,VALID,0,VALID,23.2459,VALID,3,VALID,0,
2012-12-05, 00:26:04,VALID,1009.33,VALID,0,VALID,104,VALID,0,VALID,23.2654,VALID,3,VALID,0,
2012-12-05, 00:27:04,VALID,1009.33,VALID,0,VALID,104,VALID,0,VALID,23.2476,VALID,3,VALID,0.240234,
2012-12-05, 00:28:04,VALID,1009.32,VALID,0,VALID,104,VALID,0,VALID,23.2264,VALID,3,VALID,0,
2012-12-05, 00:29:04,VALID,1009.33,VALID,0,VALID,104,VALID,0,VALID,23.2459,VALID,3,VALID,0.584766,
2012-12-05, 00:30:04,VALID,1009.29,VALID,0,VALID,104,VALID,0,VALID,23.2476,VALID,3,VALID,0.351563,
2012-12-05, 00:31:04,VALID,1009.28,VALID,0,VALID,104,VALID,0,VALID,23.2459,VALID,3,VALID,0.299609,
2012-12-05, 00:32:04,VALID,1009.27,VALID,0,VALID,104,VALID,0,VALID,23.2671,VALID,3,VALID,0.242188,
2012-12-05, 00:33:04,VALID,1009.29,VALID,0,VALID,104,VALID,0,VALID,23.2671,VALID,3,VALID,0.266797,
2012-12-05, 00:34:04,VALID,1009.27,VALID,0,VALID,104,VALID,0,VALID,23.2654,VALID,3,VALID,0.3,
2012-12-05, 00:35:04,VALID,1009.26,VALID,0,VALID,104,VALID,0,VALID,23.2866,VALID,3,VALID,0.246875,
2012-12-05, 00:36:04,VALID,1009.25,VALID,0,VALID,104,VALID,0,VALID,23.2459,VALID,3,VALID,0.336328,
2012-12-05, 00:37:04,VALID,1009.26,VALID,0,VALID,104,VALID,0,VALID,23.2654,VALID,3,VALID,0.277734,
2012-12-05, 00:38:04,VALID,1009.25,VALID,0,VALID,104,VALID,0,VALID,23.2441,VALID,3,VALID,0.229297,
2012-12-05, 00:39:04,VALID,1009.25,VALID,0,VALID,104,VALID,0,VALID,23.3061,VALID,3,VALID,0.09375,
2012-12-05, 00:40:04,VALID,1009.21,VALID,0,VALID,104,VALID,0,VALID,23.2848,VALID,3,VALID,0,
2012-12-05, 00:41:04,VALID,1009.22,VALID,0,VALID,104,VALID,0,VALID,23.2459,VALID,3,VALID,0.247656,
2012-12-05, 00:42:04,VALID,1009.21,VALID,0,VALID,104,VALID,0,VALID,23.2459,VALID,3,VALID,0.0703125,
2012-12-05, 00:43:04,VALID,1009.19,VALID,0,VALID,104,VALID,0,VALID,23.2264,VALID,3,VALID,0,
2012-12-05, 00:44:04,VALID,1009.2,VALID,0,VALID,104,VALID,0,VALID,23.2069,VALID,3,VALID,0.395312,
2012-12-05, 00:45:04,VALID,1009.15,VALID,0,VALID,104,VALID,0,VALID,23.1679,VALID,3,VALID,0.386719,
2012-12-05, 00:46:04,VALID,1009.13,VALID,0,VALID,104,VALID,0,VALID,23.1679,VALID,3,VALID,0.0109375,
2012-12-05, 00:47:04,VALID,1009.13,VALID,0,VALID,104,VALID,0,VALID,23.1485,VALID,3,VALID,0,
2012-12-05, 00:48:04,VALID,1009.14,VALID,0,VALID,104,VALID,0,VALID,23.1697,VALID,3,VALID,0.00117188,
2012-12-05, 00:49:04,VALID,1009.14,VALID,0,VALID,104,VALID,0.112112,VALID,23.1485,VALID,3,VALID,0,
2012-12-05, 00:50:04,VALID,1009.12,VALID,0,VALID,104,VALID,0,VALID,23.1485,VALID,3,VALID,0.203516,
2012-12-05, 00:51:04,VALID,1009.14,VALID,0,VALID,104,VALID,0,VALID,23.1095,VALID,3,VALID,0.171875,
2012-12-05, 00:52:04,VALID,1009.11,VALID,0,VALID,104,VALID,0,VALID,23.1095,VALID,3,VALID,0.191797,
2012-12-05, 00:53:04,VALID,1009.08,VALID,0,VALID,104,VALID,0,VALID,23.129,VALID,3,VALID,0.0128906,
2012-12-05, 00:54:04,VALID,1009.07,VALID,0,VALID,104,VALID,0,VALID,23.1095,VALID,3,VALID,0.19375,
2012-12-05, 00:55:04,VALID,1009.03,VALID,0,VALID,104,VALID,0,VALID,23.09,VALID,3,VALID,0,
2012-12-05, 00:56:04,VALID,1009.01,VALID,0,VALID,104,VALID,0,VALID,23.129,VALID,3,VALID,0.262109,
2012-12-05, 00:57:04,VALID,1009.01,VALID,0,VALID,104,VALID,0,VALID,23.1272,VALID,3,VALID,0,
2012-12-05, 00:58:04,VALID,1009.02,VALID,0,VALID,104,VALID,0,VALID,23.1095,VALID,3,VALID,0,
2012-12-05, 00:59:04,VALID,1008.98,VALID,0,VALID,104,VALID,0,VALID,23.1095,VALID,3,VALID,0,
2012-12-05, 01:00:04,VALID,1008.96,VALID,0,VALID,104,VALID,0,VALID,23.1307,VALID,3,VALID,0,
2012-12-05, 01:01:04,VALID,1008.96,VALID,0,VALID,104,VALID,0,VALID,23.129,VALID,3,VALID,0.277344,
2012-12-05, 01:02:04,VALID,1008.92,VALID,0,VALID,104,VALID,0,VALID,23.1485,VALID,3,VALID,0.329688,
2012-12-05, 01:03:04,VALID,1008.88,VALID,0,VALID,104,VALID,0,VALID,23.1679,VALID,3,VALID,0.476172,
2012-12-05, 01:04:04,VALID,1008.88,VALID,0,VALID,104,VALID,0,VALID,23.129,VALID,3,VALID,0.598437,
2012-12-05, 01:05:04,VALID,1008.89,VALID,0,VALID,104,VALID,0.112112,VALID,23.1679,VALID,3,VALID,0.516016,
2012-12-05, 01:06:04,VALID,1008.87,VALID,0,VALID,104,VALID,0,VALID,23.2087,VALID,5,VALID,0.377734,
2012-12-05, 01:07:04,VALID,1008.86,VALID,0,VALID,104,VALID,0,VALID,23.1857,VALID,5,VALID,0.185156,
2012-12-05, 01:08:04,VALID,1008.85,VALID,0,VALID,104,VALID,0.112112,VALID,23.2264,VALID,5,VALID,0.270312,
2012-12-05, 01:09:04,VALID,1008.86,VALID,0,VALID,104,VALID,0,VALID,23.2264,VALID,5,VALID,0.196484,
2012-12-05, 01:10:04,VALID,1008.84,VALID,0,VALID,104,VALID,0.112112,VALID,23.2459,VALID,5,VALID,0.225,
2012-12-05, 01:11:04,VALID,1008.85,VALID,0,VALID,104,VALID,0.112112,VALID,23.2246,VALID,5,VALID,0.529297,
2012-12-05, 01:12:04,VALID,1008.84,VALID,0,VALID,104,VALID,0,VALID,23.2459,VALID,89,VALID,0.524219,
2012-12-05, 01:13:04,VALID,1008.8,VALID,0,VALID,104,VALID,0,VALID,23.2441,VALID,89,VALID,0.574219,
2012-12-05, 01:14:04,VALID,1008.82,VALID,0,VALID,104,VALID,0.112112,VALID,23.2441,VALID,89,VALID,0.464453,
2012-12-05, 01:15:04,VALID,1008.82,VALID,0,VALID,104,VALID,0,VALID,23.2654,VALID,89,VALID,0.583203,
2012-12-05, 01:16:04,VALID,1008.8,VALID,0,VALID,104,VALID,0.112112,VALID,23.2459,VALID,89,VALID,0.347266,
2012-12-05, 01:17:04,VALID,1008.77,VALID,0,VALID,104,VALID,0,VALID,23.2051,VALID,89,VALID,0.555078,
2012-12-05, 01:18:04,VALID,1008.8,VALID,0,VALID,104,VALID,0.112112,VALID,23.2264,VALID,111,VALID,0.638281,
2012-12-05, 01:19:04,VALID,1008.78,VALID,0,VALID,104,VALID,0.112112,VALID,23.2264,VALID,111,VALID,0.491016,
2012-12-05, 01:20:04,VALID,1008.77,VALID,0,VALID,104,VALID,0,VALID,23.2264,VALID,111,VALID,0.164453,
2012-12-05, 01:21:04,VALID,1008.74,VALID,0,VALID,104,VALID,0.112112,VALID,23.2264,VALID,111,VALID,0.192578,
2012-12-05, 01:22:04,VALID,1008.74,VALID,0,VALID,104,VALID,0,VALID,23.2069,VALID,111,VALID,0,
2012-12-05, 01:23:04,VALID,1008.69,VALID,0,VALID,104,VALID,0.112112,VALID,23.2069,VALID,111,VALID,0,
2012-12-05, 01:24:04,VALID,1008.72,VALID,0,VALID,104,VALID,0.112112,VALID,23.2069,VALID,111,VALID,0,
2012-12-05, 01:25:04,VALID,1008.69,VALID,0,VALID,104,VALID,0.112112,VALID,23.1467,VALID,111,VALID,0,
2012-12-05, 01:26:04,VALID,1008.7,VALID,0,VALID,104,VALID,0.112112,VALID,23.1874,VALID,111,VALID,0,
2012-12-05, 01:27:04,VALID,1008.7,VALID,0,VALID,104,VALID,0,VALID,23.1272,VALID,111,VALID,0,
2012-12-05, 01:28:04,VALID,1008.68,VALID,0,VALID,104,VALID,0,VALID,23.129,VALID,111,VALID,0,
2012-12-05, 01:29:04,VALID,1008.67,VALID,0,VALID,104,VALID,0.112112,VALID,23.129,VALID,111,VALID,0,
2012-12-05, 01:30:04,VALID,1008.64,VALID,0,VALID,104,VALID,0,VALID,23.1272,VALID,111,VALID,0.246875,
2012-12-05, 01:31:04,VALID,1008.64,VALID,0,VALID,104,VALID,0.112112,VALID,23.1485,VALID,111,VALID,0.253906,
2012-12-05, 01:32:04,VALID,1008.61,VALID,0,VALID,104,VALID,0,VALID,23.1077,VALID,111,VALID,0.372656,
2012-12-05, 01:33:04,VALID,1008.58,VALID,0,VALID,104,VALID,0,VALID,23.1095,VALID,111,VALID,0.2125,
2012-12-05, 01:34:04,VALID,1008.58,VALID,0,VALID,104,VALID,0.112112,VALID,23.09,VALID,111,VALID,0.14375,
2012-12-05, 01:35:04,VALID,1008.57,VALID,0,VALID,104,VALID,0.112112,VALID,23.09,VALID,112,VALID,0,
2012-12-05, 01:36:04,VALID,1008.56,VALID,0,VALID,104,VALID,0,VALID,23.0705,VALID,111,VALID,0,
2012-12-05, 01:37:04,VALID,1008.56,VALID,0,VALID,104,VALID,0,VALID,23.0705,VALID,111,VALID,0,
2012-12-05, 01:38:04,VALID,1008.57,VALID,0,VALID,104,VALID,0,VALID,23.0493,VALID,111,VALID,0,
2012-12-05, 01:39:04,VALID,1008.56,VALID,0,VALID,104,VALID,0.112112,VALID,23.0493,VALID,111,VALID,0,
2012-12-05, 01:40:04,VALID,1008.57,VALID,0,VALID,104,VALID,0,VALID,23.0688,VALID,111,VALID,0.2875,
2012-12-05, 01:41:04,VALID,1008.56,VALID,0,VALID,104,VALID,0.112112,VALID,23.0705,VALID,110,VALID,0.201562,
2012-12-05, 01:42:04,VALID,1008.55,VALID,0,VALID,104,VALID,0,VALID,23.0511,VALID,111,VALID,0.275391,
2012-12-05, 01:43:04,VALID,1008.54,VALID,0,VALID,104,VALID,0.112112,VALID,23.0511,VALID,111,VALID,0.296875,
2012-12-05, 01:44:04,VALID,1008.56,VALID,0,VALID,104,VALID,0.112112,VALID,23.0316,VALID,111,VALID,0.130078,
2012-12-05, 01:45:04,VALID,1008.55,VALID,0,VALID,104,VALID,0,VALID,23.0511,VALID,111,VALID,0.0496094,
2012-12-05, 01:46:04,VALID,1008.55,VALID,0,VALID,104,VALID,0.112112,VALID,23.09,VALID,111,VALID,0,
2012-12-05, 01:47:04,VALID,1008.52,VALID,0,VALID,104,VALID,0,VALID,23.0298,VALID,111,VALID,0.197656,
2012-12-05, 01:48:04,VALID,1008.54,VALID,0,VALID,104,VALID,0.112112,VALID,23.0316,VALID,111,VALID,0,
2012-12-05, 01:49:04,VALID,1008.53,VALID,0,VALID,104,VALID,0,VALID,23.0316,VALID,111,VALID,0,
2012-12-05, 01:50:04,VALID,1008.53,VALID,0,VALID,104,VALID,0,VALID,23.0705,VALID,111,VALID,0,
2012-12-05, 01:51:04,VALID,1008.52,VALID,0,VALID,104,VALID,0.112112,VALID,23.0511,VALID,111,VALID,0,
2012-12-05, 01:52:04,VALID,1008.51,VALID,0,VALID,104,VALID,0,VALID,23.0316,VALID,111,VALID,0,
2012-12-05, 01:53:04,VALID,1008.5,VALID,0,VALID,104,VALID,0,VALID,23.0705,VALID,111,VALID,0,
2012-12-05, 01:54:04,VALID,1008.5,VALID,0,VALID,104,VALID,0.112112,VALID,23.0493,VALID,111,VALID,0,
2012-12-05, 01:55:04,VALID,1008.51,VALID,0,VALID,104,VALID,0.112112,VALID,23.0511,VALID,111,VALID,0.128516,
2012-12-05, 01:56:04,VALID,1008.49,VALID,0,VALID,104,VALID,0,VALID,22.9714,VALID,111,VALID,0,
2012-12-05, 01:57:04,VALID,1008.48,VALID,0,VALID,104,VALID,0.112112,VALID,23.0121,VALID,111,VALID,0,
2012-12-05, 01:58:04,VALID,1008.48,VALID,0,VALID,104,VALID,0,VALID,22.9926,VALID,111,VALID,0,
2012-12-05, 01:59:04,VALID,1008.46,VALID,0,VALID,104,VALID,0,VALID,22.9926,VALID,111,VALID,0,
2012-12-05, 02:00:04,VALID,1008.46,VALID,0,VALID,104,VALID,0.112112,VALID,22.9714,VALID,111,VALID,0,
2012-12-05, 02:01:04,VALID,1008.46,VALID,0,VALID,104,VALID,0.112112,VALID,22.9909,VALID,111,VALID,0,
2012-12-05, 02:02:04,VALID,1008.47,VALID,0,VALID,104,VALID,0,VALID,23.0121,VALID,111,VALID,0,
2012-12-05, 02:03:04,VALID,1008.43,VALID,0,VALID,104,VALID,0.112112,VALID,22.9926,VALID,111,VALID,0,
2012-12-05, 02:04:04,VALID,1008.46,VALID,0,VALID,104,VALID,0,VALID,23.0121,VALID,111,VALID,0,
2012-12-05, 02:05:04,VALID,1008.47,VALID,0,VALID,104,VALID,0.112112,VALID,23.0316,VALID,111,VALID,0.0304688,
2012-12-05, 02:06:04,VALID,1008.49,VALID,0,VALID,104,VALID,0,VALID,23.0316,VALID,111,VALID,0.201562,
2012-12-05, 02:07:04,VALID,1008.47,VALID,0,VALID,104,VALID,0,VALID,23.0121,VALID,111,VALID,0.411328,
2012-12-05, 02:08:04,VALID,1008.5,VALID,0,VALID,104,VALID,0,VALID,23.0511,VALID,111,VALID,0.199609,
2012-12-05, 02:09:04,VALID,1008.48,VALID,0,VALID,104,VALID,0,VALID,23.0316,VALID,111,VALID,0.0714844,
2012-12-05, 02:10:04,VALID,1008.48,VALID,0,VALID,104,VALID,0,VALID,23.0121,VALID,111,VALID,0.307813,
2012-12-05, 02:11:04,VALID,1008.51,VALID,0,VALID,104,VALID,0,VALID,23.0316,VALID,111,VALID,0.471094,
2012-12-05, 02:12:04,VALID,1008.52,VALID,0,VALID,104,VALID,0,VALID,23.0511,VALID,111,VALID,0.690234,
2012-12-05, 02:13:04,VALID,1008.52,VALID,0,VALID,104,VALID,0,VALID,23.0316,VALID,111,VALID,0.583203,
2012-12-05, 02:14:04,VALID,1008.49,VALID,0,VALID,104,VALID,0,VALID,23.0298,VALID,111,VALID,0.657422,
2012-12-05, 02:15:04,VALID,1008.47,VALID,0,VALID,104,VALID,0,VALID,23.0316,VALID,115,VALID,0.655859,
2012-12-05, 02:16:04,VALID,1008.48,VALID,0,VALID,104,VALID,0,VALID,23.0511,VALID,115,VALID,0.623828,
2012-12-05, 02:17:04,VALID,1008.47,VALID,0,VALID,104,VALID,0,VALID,23.0511,VALID,115,VALID,0.881641,
2012-12-05, 02:18:04,VALID,1008.46,VALID,0,VALID,104,VALID,0,VALID,23.0316,VALID,115,VALID,0.540625,
2012-12-05, 02:19:04,VALID,1008.47,VALID,0,VALID,104,VALID,0,VALID,23.0705,VALID,115,VALID,0.765234,
2012-12-05, 02:20:04,VALID,1008.5,VALID,0,VALID,104,VALID,0.112112,VALID,23.0705,VALID,115,VALID,0.5625,
2012-12-05, 02:21:04,VALID,1008.48,VALID,0,VALID,104,VALID,0,VALID,23.0528,VALID,115,VALID,0.712891,
2012-12-05, 02:22:04,VALID,1008.52,VALID,0,VALID,104,VALID,0,VALID,23.0705,VALID,115,VALID,0.473437,
2012-12-05, 02:23:04,VALID,1008.52,VALID,0,VALID,104,VALID,0,VALID,23.1095,VALID,115,VALID,0.465625,
2012-12-05, 02:24:04,VALID,1008.54,VALID,0,VALID,104,VALID,0.112112,VALID,23.0705,VALID,115,VALID,0.403906,
2012-12-05, 02:25:04,VALID,1008.52,VALID,0,VALID,104,VALID,0.112112,VALID,23.1095,VALID,115,VALID,0.575391,
2012-12-05, 02:26:04,VALID,1008.52,VALID,0,VALID,104,VALID,0.112112,VALID,23.0688,VALID,115,VALID,0.373437,
2012-12-05, 02:27:04,VALID,1008.52,VALID,0,VALID,104,VALID,0.112112,VALID,23.129,VALID,115,VALID,0.394531,
2012-12-05, 02:28:04,VALID,1008.53,VALID,0,VALID,104,VALID,0,VALID,23.129,VALID,115,VALID,0.274609,
2012-12-05, 02:29:04,VALID,1008.55,VALID,0,VALID,104,VALID,0,VALID,23.1095,VALID,115,VALID,0.355469,
2012-12-05, 02:30:04,VALID,1008.54,VALID,0,VALID,104,VALID,0,VALID,23.0688,VALID,115,VALID,0.295312,
2012-12-05, 02:31:04,VALID,1008.52,VALID,0,VALID,104,VALID,0,VALID,23.1095,VALID,115,VALID,0.326953,
2012-12-05, 02:32:04,VALID,1008.48,VALID,0,VALID,104,VALID,0,VALID,23.129,VALID,115,VALID,0.5375,
2012-12-05, 02:33:04,VALID,1008.47,VALID,0,VALID,104,VALID,0,VALID,23.1485,VALID,115,VALID,0.366016,
2012-12-05, 02:34:04,VALID,1008.47,VALID,0,VALID,104,VALID,0.112112,VALID,23.1077,VALID,115,VALID,0.269531,
2012-12-05, 02:35:04,VALID,1008.46,VALID,0,VALID,104,VALID,0,VALID,23.1485,VALID,115,VALID,0.247266,
2012-12-05, 02:36:04,VALID,1008.47,VALID,0,VALID,104,VALID,0,VALID,23.1485,VALID,115,VALID,0.321875,
2012-12-05, 02:37:04,VALID,1008.46,VALID,0,VALID,104,VALID,0.112112,VALID,23.1679,VALID,114,VALID,0.417578,
2012-12-05, 02:38:04,VALID,1008.47,VALID,0,VALID,104,VALID,0.112112,VALID,23.129,VALID,114,VALID,0.456641,
2012-12-05, 02:39:04,VALID,1008.47,VALID,0,VALID,104,VALID,0.112112,VALID,23.129,VALID,103,VALID,0.288672,
2012-12-05, 02:40:04,VALID,1008.48,VALID,0,VALID,104,VALID,0.112112,VALID,23.1272,VALID,103,VALID,0.584375,
2012-12-05, 02:41:04,VALID,1008.5,VALID,0,VALID,104,VALID,0.112112,VALID,23.1077,VALID,101,VALID,0.627734,
2012-12-05, 02:42:04,VALID,1008.5,VALID,0,VALID,104,VALID,0.112112,VALID,23.1485,VALID,102,VALID,0.561719,
2012-12-05, 02:43:04,VALID,1008.47,VALID,0,VALID,104,VALID,0,VALID,23.1272,VALID,99,VALID,0.838281,
2012-12-05, 02:44:04,VALID,1008.48,VALID,0,VALID,104,VALID,0,VALID,23.1485,VALID,96,VALID,0.870313,
2012-12-05, 02:45:04,VALID,1008.48,VALID,0,VALID,104,VALID,0.112112,VALID,23.1679,VALID,76,VALID,0.530859,
2012-12-05, 02:46:04,VALID,1008.47,VALID,0,VALID,104,VALID,0.112112,VALID,23.1874,VALID,77,VALID,0.159375,
2012-12-05, 02:47:04,VALID,1008.5,VALID,0,VALID,104,VALID,0,VALID,23.1485,VALID,76,VALID,0.00703125,
2012-12-05, 02:48:04,VALID,1008.52,VALID,0,VALID,104,VALID,0,VALID,23.1502,VALID,76,VALID,0.567578,
2012-12-05, 02:49:04,VALID,1008.52,VALID,0,VALID,104,VALID,0,VALID,23.1112,VALID,76,VALID,0.444531,
2012-12-05, 02:50:04,VALID,1008.54,VALID,0,VALID,104,VALID,0,VALID,23.1112,VALID,48,VALID,0.710156,
2012-12-05, 02:51:04,VALID,1008.56,VALID,0,VALID,104,VALID,0,VALID,23.0918,VALID,44,VALID,0.440625,
2012-12-05, 02:52:04,VALID,1008.58,VALID,0,VALID,104,VALID,0,VALID,23.0918,VALID,44,VALID,0.340234,
2012-12-05, 02:53:04,VALID,1008.61,VALID,0,VALID,104,VALID,0,VALID,23.0511,VALID,44,VALID,0.503906,
2012-12-05, 02:54:04,VALID,1008.62,VALID,0,VALID,104,VALID,0,VALID,23.0528,VALID,45,VALID,0.540625,
2012-12-05, 02:55:04,VALID,1008.65,VALID,0,VALID,104,VALID,0,VALID,23.0138,VALID,31,VALID,0.570703,
2012-12-05, 02:56:04,VALID,1008.64,VALID,0,VALID,104,VALID,0,VALID,22.9943,VALID,31,VALID,0.262109,
2012-12-05, 02:57:04,VALID,1008.64,VALID,0,VALID,104,VALID,0,VALID,22.9749,VALID,31,VALID,0.327734,
2012-12-05, 02:58:04,VALID,1008.69,VALID,0,VALID,104,VALID,0,VALID,22.9359,VALID,31,VALID,0.0871094,
2012-12-05, 02:59:04,VALID,1008.67,VALID,0,VALID,104,VALID,0,VALID,22.9359,VALID,31,VALID,0.211328,
2012-12-05, 03:00:04,VALID,1008.64,VALID,0,VALID,104,VALID,0,VALID,22.9164,VALID,31,VALID,0.173438,
2012-12-05, 03:01:04,VALID,1008.65,VALID,0,VALID,104,VALID,0,VALID,22.8952,VALID,31,VALID,0.301172,
2012-12-05, 03:02:04,VALID,1008.65,VALID,0,VALID,104,VALID,0,VALID,22.8757,VALID,31,VALID,0.438672,
2012-12-05, 03:03:04,VALID,1008.66,VALID,0,VALID,104,VALID,0.112112,VALID,22.8562,VALID,31,VALID,0.222656,
2012-12-05, 03:04:04,VALID,1008.66,VALID,0,VALID,104,VALID,0.112112,VALID,22.8545,VALID,31,VALID,0.0683594,
2012-12-05, 03:05:04,VALID,1008.67,VALID,0,VALID,104,VALID,0.112112,VALID,22.8155,VALID,31,VALID,0.0140625,
2012-12-05, 03:06:04,VALID,1008.64,VALID,0,VALID,104,VALID,0,VALID,22.7961,VALID,31,VALID,0.134766,
2012-12-05, 03:07:04,VALID,1008.67,VALID,0,VALID,104,VALID,0.112112,VALID,22.7961,VALID,31,VALID,0.148828,
2012-12-05, 03:08:04,VALID,1008.68,VALID,0,VALID,104,VALID,0.112112,VALID,22.7961,VALID,31,VALID,0.201562,
2012-12-05, 03:09:04,VALID,1008.7,VALID,0,VALID,104,VALID,0.112112,VALID,22.7766,VALID,31,VALID,0.265625,
2012-12-05, 03:10:04,VALID,1008.68,VALID,0,VALID,104,VALID,0.112112,VALID,22.7766,VALID,31,VALID,0.433203,
2012-12-05, 03:11:04,VALID,1008.71,VALID,0,VALID,104,VALID,0.112112,VALID,22.7571,VALID,31,VALID,0.494141,
2012-12-05, 03:12:04,VALID,1008.68,VALID,0,VALID,104,VALID,0.112112,VALID,22.7182,VALID,31,VALID,0.668359,
2012-12-05, 03:13:04,VALID,1008.68,VALID,0,VALID,104,VALID,0.112112,VALID,22.7376,VALID,31,VALID,0.458594,
2012-12-05, 03:14:04,VALID,1008.68,VALID,0,VALID,104,VALID,0.112112,VALID,22.7588,VALID,32,VALID,0.566016,
2012-12-05, 03:15:04,VALID,1008.67,VALID,0,VALID,104,VALID,0.112112,VALID,22.7588,VALID,32,VALID,0.0753906,
2012-12-05, 03:16:04,VALID,1008.67,VALID,0,VALID,104,VALID,0.112112,VALID,22.7376,VALID,32,VALID,0,
2012-12-05, 03:17:04,VALID,1008.68,VALID,0,VALID,104,VALID,0.112112,VALID,22.7376,VALID,32,VALID,0.272656,
2012-12-05, 03:18:04,VALID,1008.7,VALID,0,VALID,104,VALID,0,VALID,22.7394,VALID,32,VALID,0.310156,
2012-12-05, 03:19:04,VALID,1008.7,VALID,0,VALID,104,VALID,0.112112,VALID,22.7199,VALID,32,VALID,0.228125,
2012-12-05, 03:20:04,VALID,1008.74,VALID,0,VALID,104,VALID,0.112112,VALID,22.7182,VALID,32,VALID,0,
2012-12-05, 03:21:04,VALID,1008.72,VALID,0,VALID,104,VALID,0.112112,VALID,22.7199,VALID,32,VALID,0,
2012-12-05, 03:22:04,VALID,1008.75,VALID,0,VALID,104,VALID,0.112112,VALID,22.6987,VALID,32,VALID,0.0996094,
2012-12-05, 03:23:04,VALID,1008.75,VALID,0,VALID,104,VALID,0.112112,VALID,22.7394,VALID,32,VALID,0.0664063,
2012-12-05, 03:24:04,VALID,1008.73,VALID,0,VALID,104,VALID,0.112112,VALID,22.7182,VALID,32,VALID,0,
2012-12-05, 03:25:04,VALID,1008.74,VALID,0,VALID,104,VALID,0.112112,VALID,22.7199,VALID,32,VALID,0,
2012-12-05, 03:26:04,VALID,1008.75,VALID,0,VALID,104,VALID,0.112112,VALID,22.7004,VALID,32,VALID,0.4,
2012-12-05, 03:27:04,VALID,1008.73,VALID,0,VALID,104,VALID,0.112112,VALID,22.6792,VALID,32,VALID,0.362109,
2012-12-05, 03:28:04,VALID,1008.72,VALID,0,VALID,104,VALID,0.112112,VALID,22.6987,VALID,32,VALID,0.258203,
2012-12-05, 03:29:04,VALID,1008.7,VALID,0,VALID,104,VALID,0.112112,VALID,22.6987,VALID,32,VALID,0.243359,
2012-12-05, 03:30:04,VALID,1008.7,VALID,0,VALID,104,VALID,0.112112,VALID,22.7199,VALID,32,VALID,0.344141,
2012-12-05, 03:31:04,VALID,1008.7,VALID,0,VALID,104,VALID,0.112112,VALID,22.7004,VALID,32,VALID,0.449219,
2012-12-05, 03:32:04,VALID,1008.72,VALID,0,VALID,104,VALID,0,VALID,22.6792,VALID,32,VALID,0.427344,
2012-12-05, 03:33:04,VALID,1008.73,VALID,0,VALID,104,VALID,0.112112,VALID,22.6987,VALID,32,VALID,0.219531,
2012-12-05, 03:34:04,VALID,1008.74,VALID,0,VALID,104,VALID,0.112112,VALID,22.6987,VALID,32,VALID,0.0535156,
2012-12-05, 03:35:04,VALID,1008.72,VALID,0,VALID,104,VALID,0.112112,VALID,22.7199,VALID,32,VALID,0.407422,
2012-12-05, 03:36:04,VALID,1008.74,VALID,0,VALID,104,VALID,0,VALID,22.7394,VALID,32,VALID,0,
2012-12-05, 03:37:04,VALID,1008.74,VALID,0,VALID,104,VALID,0.112112,VALID,22.7182,VALID,52,VALID,0.587109,
2012-12-05, 03:38:04,VALID,1008.73,VALID,0,VALID,104,VALID,0.112112,VALID,22.7182,VALID,52,VALID,0.432813,
2012-12-05, 03:39:04,VALID,1008.73,VALID,0,VALID,104,VALID,0.112112,VALID,22.7182,VALID,52,VALID,0.46875,
2012-12-05, 03:40:04,VALID,1008.74,VALID,0,VALID,104,VALID,0.112112,VALID,22.6987,VALID,51,VALID,0.601172,
2012-12-05, 03:41:04,VALID,1008.74,VALID,0,VALID,104,VALID,0.112112,VALID,22.7182,VALID,51,VALID,0.445313,
2012-12-05, 03:42:04,VALID,1008.74,VALID,0,VALID,104,VALID,0.112112,VALID,22.6987,VALID,51,VALID,0.307813,
2012-12-05, 03:43:04,VALID,1008.75,VALID,0,VALID,104,VALID,0.112112,VALID,22.6987,VALID,51,VALID,0.398828,
2012-12-05, 03:44:04,VALID,1008.76,VALID,0,VALID,104,VALID,0.112112,VALID,22.6597,VALID,51,VALID,0.0257812,
2012-12-05, 03:45:04,VALID,1008.76,VALID,0,VALID,104,VALID,0.112112,VALID,22.6792,VALID,51,VALID,0,
2012-12-05, 03:46:04,VALID,1008.72,VALID,0,VALID,104,VALID,0.112112,VALID,22.7004,VALID,51,VALID,0.459375,
2012-12-05, 03:47:04,VALID,1008.74,VALID,0,VALID,104,VALID,0.112112,VALID,22.6614,VALID,51,VALID,0.214844,
2012-12-05, 03:48:04,VALID,1008.74,VALID,0,VALID,104,VALID,0,VALID,22.6614,VALID,51,VALID,0.386719,
2012-12-05, 03:49:04,VALID,1008.76,VALID,0,VALID,104,VALID,0,VALID,22.6225,VALID,51,VALID,0.239063,
2012-12-05, 03:50:04,VALID,1008.77,VALID,0,VALID,104,VALID,0,VALID,22.642,VALID,51,VALID,0.219531,
2012-12-05, 03:51:04,VALID,1008.73,VALID,0,VALID,104,VALID,0,VALID,22.642,VALID,51,VALID,0.144922,
2012-12-05, 03:52:04,VALID,1008.75,VALID,0,VALID,104,VALID,0,VALID,22.6242,VALID,51,VALID,0.203516,